Weather Roundup
Issued by NWS Springfield, MO

Home | Current Version | Previous Version | Text Only | Print | Product List | Glossary On
Versions: 1 2 3 4 5 6 7 8 9 10 11 12 13 14 15 16 17 18 19 20 21 22 23 24 25 26 27 28 29 30 31 32 33 34 35 36 37 38 39 40 41 42 43 44 45 46 47 48 49 50
000
NZUS99 KSGF 252207
HRRSGF

HOURLY WEATHER
NATIONAL WEATHER SERVICE SPRINGFIELD MO
500 PM CDT MON JUL 25 2016

......SGF CWA......

CITY           SKY/WX    TMP DP  RH WIND       PRES   REMARKS
SPRINGFIELD    PTSUNNY   83  71  67 NE9       30.00R
JOPLIN         CLOUDY    83  73  72 N8        30.00R
WEST PLAINS    PTSUNNY   86  72  62 N8        29.99F HX  92
ROLLA          CLOUDY    81  73  76 N9        29.99S
OSAGE BEACH    CLOUDY    81  75  82 NE8       30.00R
BRANSON        PTSUNNY   81  72  74 E5        29.99F

......SURROUNDING SGF CWA......

CITY           SKY/WX    TMP DP  RH WIND       PRES   REMARKS
CHANUTE        CLOUDY    82  72  71 N8        30.01S
PARSONS          N/A    N/A N/A N/A MISG      30.01S
COFFEYVILLE    CLOUDY    86  72  62 N12       29.97R HX  92
EMPORIA        MOSUNNY   79  71  76 N8        30.04F
GROVE OK       CLOUDY    86  73  66 E3        29.97R HX  93
ROGERS AR      CLOUDY    83  73  72 E6        29.98S
SILOAM SPRINGS PTSUNNY   86  68  54 SE3       29.97F
HARRISON AR    PTSUNNY   86  71  60 NE6       29.98F HX  91
NEAR YELLVILLE PTSUNNY   86  70  58 N5        29.94R HX  90

......KANSAS AND MISSOURI......

CITY           SKY/WX    TMP DP  RH WIND       PRES   REMARKS
KANSAS CTY INT PTSUNNY   84  67  56 NE8       30.03R
DOWNTOWN KC    CLOUDY    88  68  51 VRB7      30.00R HX  91
COLUMBIA       PTSUNNY   83  72  69 N9        30.00S
SEDALIA        MOSUNNY   84  73  69 NE8       30.02S HX  90
ST JOSEPH      MOSUNNY   87  62  43 NE9       30.02F
ST LOUIS       PTSUNNY   87  75  67 NW12      29.97S HX  96
SPIRIT OF STL  PTSUNNY   86  76  71 N12       29.96S HX  96
KIRKSVILLE     SUNNY     86  65  49 N13       30.03F
WICHITA        PTSUNNY   87  69  54 N10       30.00F HX  91
TOPEKA           N/A     84  69  60 NE9       30.03F
OLATHE         CLOUDY    82  70  66 NE5       30.03S

......TENNESSEE......

CITY           SKY/WX    TMP DP  RH WIND       PRES   REMARKS
MEMPHIS        PTSUNNY   91  74  57 W6        29.94F THUNDER HX 100
NASHVILLE      PTSUNNY   89  69  51 W7        29.98S HX  93

......ARKANSAS.......

CITY           SKY/WX    TMP DP  RH WIND       PRES   REMARKS
FAYETTEVILLE   CLOUDY    82  77  84 CALM      29.95F HX  90
FT SMITH       CLOUDY    86  70  58 SE7       29.92F HX  90
LITTLE ROCK    MOSUNNY   96  74  48 E10       29.91F HX 107

......OKLAHOMA.......

CITY           SKY/WX    TMP DP  RH WIND       PRES   REMARKS
TULSA          CLOUDY    90  73  57 SE9       29.91F HX  98
PONCA CITY     CLOUDY    86  71  60 E7        29.95F HX  91
MCALESTER      MOSUNNY   97  75  49 VRB5      29.92F HX 109
OKLAHOMA CITY  PTSUNNY   93  70  46 CALM      29.93F HX  99

......IOWA............

CITY           SKY/WX    TMP DP  RH WIND       PRES   REMARKS
DES MOINES     MOSUNNY   88  62  41 N12       30.03F
QUAD CITIES    MOSUNNY   86  64  47 N8        30.00S

......ILLINOIS........

CITY           SKY/WX    TMP DP  RH WIND       PRES   REMARKS
QUINCY         CLOUDY    82  68  62 N7        30.01S
CHICAGO        PTSUNNY   87  64  46 E8        29.97S




USA.gov is the U.S. government's official web portal to all federal, state and local government web resources and services.